INTELSAT 16 (IS-16) (36397 NORAD) Tracking and Keplerian Element Data

This shows tracking and keplerian element data for the satellite.

Feedback or suggestion? Click here.




ElementValue
Catalog36397
NameINTELSAT 16 (IS-16)
Epoch Orbit5224
Epoch Day159.85396786
Epoch Year2024
RAAN36.8659
Inclination0.016
Eccentricity0.0002034
Argument of Perigee69.8324
Mean Anonmoly21.2542
Mean Motion1.00271836
Decay Rate-2.45E-06
L11 36397U 10006A 24159.85396786 -.00000245 00000+0 00000+0 0 9998
L22 36397 0.0160 36.8659 0002034 69.8324 21.2542 1.00271836 52242



Live tracking and technical data element details for INTELSAT 16 (IS-16) (NORAD 36397). INTELSAT 16 (IS-16) can be tracked NOW for your location showing map with azimuth and elevation plus other details from your city location.







IsCatalogInMostPopularTable: catalog: 36397, numindb: 605
Update: records affected: 1



GetName: 36397 INTELSAT 16 (IS-16)

Hit Count: updated at: Tue, 18 Jun 2024 00:17:03 GMT